Weather History for Cincinnati, OH

Change the Weather History Date:

Wednesday, December 18, 2013

  Actual Average Record
Temperature  
Mean Temperature 31 °F -  
Max Temperature 37 °F 40 °F 65 °F (1967)
Min Temperature 25 °F 24 °F -2 °F (1989)
Degree Days  
Heating Degree Days 34    
Moisture  
Dew Point 19 °F    
Average Humidity 66    
Maximum Humidity 89    
Minimum Humidity 44    
Precipitation  
Precipitation 0.00 in - - ()
Sea Level Pressure  
Sea Level Pressure 30.23 in    
Wind  
Wind Speed 8 mph (SW)    
Max Wind Speed 14 mph    
Max Gust Speed -    
Visibility 10 miles    
Events      
Averages and records for this station are not official NWS values.
T = Trace of Precipitation, MM = Missing Value Source: NWS Daily Summary

Daily Weather History Graph

Daily Weather History Graph

Search for Another Location

Airport:

Trip Planner

Search our weather history database for the weather conditions in past years. The results will help you decide how hot, cold, wet, or windy it might be!

Date:

Astronomy

Dec. 18, 2013 Rise Set
Actual Time 7:51 AM EST 5:17 PM EST
Civil Twilight 7:21 AM EST 5:47 PM EST
Nautical Twilight 6:48 AM EST 6:20 PM EST
Astronomical Twilight 6:15 AM EST 6:53 PM EST
Moon 6:47 PM EST (12/18) 8:31 AM EST (12/18)
Length of Visible Light 10h 25m
Length of Day
9h 25m
Full, 98% of the Moon is Illuminated
Dec 18
Full
Dec 25
Last Quarter
Jan 1
New
Jan 7
First Quarter
Jan 15
Full

Hourly Weather History & Observations

Time (EST) Temp. Windchill Dew Point Humidity Pressure Visibility Wind Dir Wind Speed Gust Speed Precip Events Conditions
12:53 AM 28.0 °F 20.8 °F 24.1 °F 85% 30.21 in 9.0 mi SSW 6.9 mph - N/A   Mostly Cloudy
1:06 AM 28.4 °F 20.4 °F 24.8 °F 86% 30.19 in 9.0 mi SSW 8.1 mph - N/A   Mostly Cloudy
1:42 AM 28.4 °F 20.4 °F 24.8 °F 86% 30.20 in 9.0 mi SW 8.1 mph - N/A   Partly Cloudy
1:53 AM 28.0 °F 21.7 °F 24.1 °F 85% 30.20 in 9.0 mi SSW 5.8 mph - N/A   Partly Cloudy
2:53 AM 27.0 °F 18.7 °F 24.1 °F 89% 30.21 in 8.0 mi SW 8.1 mph - N/A   Clear
3:53 AM 27.0 °F 19.5 °F 23.0 °F 85% 30.22 in 10.0 mi SW 6.9 mph - N/A   Clear
4:53 AM 27.0 °F 18.7 °F 19.9 °F 75% 30.22 in 10.0 mi West 8.1 mph - N/A   Clear
5:53 AM 27.0 °F 16.7 °F 19.9 °F 75% 30.25 in 10.0 mi West 11.5 mph - N/A   Clear
6:53 AM 25.0 °F 17.1 °F 19.9 °F 81% 30.26 in 10.0 mi WSW 6.9 mph - N/A   Partly Cloudy
7:19 AM 26.6 °F 18.2 °F 17.6 °F 69% 30.25 in 10.0 mi West 8.1 mph - N/A   Mostly Cloudy
7:26 AM 26.6 °F 16.2 °F 17.6 °F 69% 30.26 in 10.0 mi West 11.5 mph - N/A   Scattered Clouds
7:53 AM 25.0 °F 17.1 °F 17.1 °F 72% 30.28 in 10.0 mi West 6.9 mph - N/A   Scattered Clouds
8:53 AM 26.1 °F 18.4 °F 19.9 °F 78% 30.29 in 10.0 mi SW 6.9 mph - N/A   Partly Cloudy
9:53 AM 28.0 °F 17.0 °F 19.0 °F 69% 30.31 in 10.0 mi West 13.8 mph - N/A   Clear
10:53 AM 28.9 °F 21.1 °F 18.0 °F 64% 30.31 in 10.0 mi WSW 8.1 mph - N/A   Clear
11:53 AM 32.0 °F 23.6 °F 17.1 °F 54% 30.31 in 10.0 mi West 10.4 mph - N/A   Clear
12:53 PM 34.0 °F 26.0 °F 17.1 °F 50% 30.30 in 10.0 mi WSW 10.4 mph - N/A   Clear
1:53 PM 37.0 °F 31.0 °F 18.0 °F 46% 30.28 in 10.0 mi SW 8.1 mph - N/A   Clear
2:53 PM 37.0 °F 31.0 °F 17.1 °F 44% 30.26 in 10.0 mi SSW 8.1 mph - N/A   Clear
3:53 PM 37.0 °F 31.0 °F 18.0 °F 46% 30.25 in 10.0 mi SSW 8.1 mph - N/A   Clear
4:53 PM 36.0 °F 29.0 °F 17.1 °F 46% 30.23 in 10.0 mi SSW 9.2 mph - N/A   Clear
5:53 PM 30.9 °F 24.3 °F 18.0 °F 59% 30.22 in 10.0 mi SSW 6.9 mph - N/A   Clear
6:53 PM 30.9 °F 27.5 °F 18.0 °F 59% 30.19 in 10.0 mi South 3.5 mph - N/A   Clear
7:53 PM 32.0 °F 28.7 °F 17.1 °F 54% 30.18 in 10.0 mi SSW 3.5 mph - N/A   Clear
8:53 PM 33.1 °F 26.1 °F 18.0 °F 54% 30.15 in 10.0 mi South 8.1 mph - N/A   Clear
9:53 PM 32.0 °F 25.6 °F 18.0 °F 56% 30.13 in 10.0 mi SSW 6.9 mph - N/A   Clear
10:53 PM 33.1 °F 26.1 °F 19.0 °F 56% 30.11 in 10.0 mi SSW 8.1 mph - N/A   Clear
11:53 PM 30.9 °F 24.3 °F 19.0 °F 61% 30.10 in 10.0 mi SW 6.9 mph - N/A   Clear